EW0184 Weather Reports


time (UTC)temp
C
wind
direction
speed
KPH
gust
KPH
rain 1hr
cm
rain 24hr
cm
rain mn
cm
humidity
%
barometer
mb
20260507223535 28 143 0.0 8.0 0.00 0.00 0.00 13 1007.1
20260507223023 29 110 0.0 8.0 0.00 0.00 0.00 13 1007.1
20260507222535 29 146 0.0 8.0 0.00 0.00 0.00 13 1007.1
20260507222029 29 162 1.6 8.0 0.00 0.00 0.00 13 1007.1
20260507221531 29 224 1.6 8.0 0.00 0.00 0.00 15 1007.2
20260507221034 28 265 0.0 9.7 0.00 0.00 0.00 15 1007.2
20260507220530 28 140 1.6 11.3 0.00 0.00 0.00 14 1007.3
20260507220034 28 172 3.2 12.9 0.00 0.00 0.00 14 1007.3
20260507215535 29 120 3.2 12.9 0.00 0.00 0.00 14 1007.4
20260507215029 29 214 1.6 11.3 0.00 0.00 0.00 14 1007.5
20260507214525 29 133 1.6 8.0 0.00 0.00 0.00 14 1007.5
20260507214021 28 139 1.6 9.7 0.00 0.00 0.00 15 1007.6
20260507213531 28 103 0.0 8.0 0.00 0.00 0.00 15 1007.7
20260507213029 28 129 1.6 11.3 0.00 0.00 0.00 15 1007.7
20260507212533 28 111 3.2 11.3 0.00 0.00 0.00 15 1007.6
20260507212028 28 129 0.0 1.6 0.00 0.00 0.00 14 1007.7
20260507211524 29 25 0.0 4.8 0.00 0.00 0.00 14 1007.8
20260507211033 29 211 0.0 8.0 0.00 0.00 0.00 16 1008.1
20260507210529 29 205 0.0 8.0 0.00 0.00 0.00 16 1008.1
20260507210030 28 231 0.0 6.4 0.00 0.00 0.00 16 1008.0
20260507205539 28 252 0.0 4.8 0.00 0.00 0.00 15 1008.1
20260507205030 28 204 0.0 4.8 0.00 0.00 0.00 16 1008.1
20260507204524 28 114 1.6 4.8 0.00 0.00 0.00 16 1008.2
20260507204036 28 110 1.6 6.4 0.00 0.00 0.00 16 1008.3
20260507203528 28 115 1.6 4.8 0.00 0.00 0.00 16 1008.4
20260507203038 28 202 1.6 11.3 0.00 0.00 0.00 17 1008.4
20260507202531 27 159 3.2 11.3 0.00 0.00 0.00 17 1008.5
20260507202028 28 143 3.2 9.7 0.00 0.00 0.00 17 1008.7
20260507201535 28 231 3.2 11.3 0.00 0.00 0.00 18 1008.8
20260507201032 27 108 1.6 11.3 0.00 0.00 0.00 19 1008.7
20260507200526 27 143 1.6 8.0 0.00 0.00 0.00 18 1008.9
20260507200022 27 108 1.6 8.0 0.00 0.00 0.00 18 1009.0
20260507195533 27 110 0.0 8.0 0.00 0.00 0.00 18 1009.0
20260507195027 28 98 3.2 8.0 0.00 0.00 0.00 19 1009.2
20260507194533 27 224 0.0 6.4 0.00 0.00 0.00 20 1009.3
20260507194033 27 5 0.0 11.3 0.00 0.00 0.00 19 1009.4
20260507193528 27 165 3.2 8.0 0.00 0.00 0.00 19 1009.4
20260507193021 27 226 1.6 8.0 0.00 0.00 0.00 20 1009.6
20260507192530 27 105 1.6 8.0 0.00 0.00 0.00 21 1009.7
20260507192028 26 248 0.0 6.4 0.00 0.00 0.00 21 1009.7
20260507191523 26 129 1.6 6.4 0.00 0.00 0.00 20 1009.9
20260507191034 26 93 0.0 6.4 0.00 0.00 0.00 20 1010.0
20260507190528 26 110 1.6 8.0 0.00 0.00 0.00 22 1010.1
20260507190037 27 113 1.6 8.0 0.00 0.00 0.00 20 1010.1
20260507185534 27 149 1.6 6.4 0.00 0.00 0.00 21 1010.3
20260507185032 27 162 1.6 8.0 0.00 0.00 0.00 21 1010.4
20260507184544 27 271 0.0 8.0 0.00 0.00 0.00 21 1010.4
20260507184031 27 260 0.0 4.8 0.00 0.00 0.00 22 1010.4
20260507183526 26 219 0.0 4.8 0.00 0.00 0.00 23 1010.5
20260507183041 26 218 0.0 9.7 0.00 0.00 0.00 22 1010.6
20260507182530 26 153 1.6 9.7 0.00 0.00 0.00 22 1010.7
20260507182025 26 285 0.0 9.7 0.00 0.00 0.00 23 1010.7
20260507181535 26 190 0.0 9.7 0.00 0.00 0.00 22 1010.8
20260507181032 26 155 1.6 9.7 0.00 0.00 0.00 24 1010.8
20260507180524 26 211 1.6 4.8 0.00 0.00 0.00 24 1011.0
20260507180024 26 145 0.0 4.8 0.00 0.00 0.00 23 1011.1
20260507175534 25 219 0.0 8.0 0.00 0.00 0.00 26 1011.2
20260507175030 25 112 0.0 8.0 0.00 0.00 0.00 26 1011.2
20260507174531 25 229 0.0 8.0 0.00 0.00 0.00 26 1011.2
20260507174037 25 207 1.6 6.4 0.00 0.00 0.00 26 1011.3
20260507173531 24 252 0.0 11.3 0.00 0.00 0.00 28 1011.4
20260507173039 24 110 4.8 11.3 0.00 0.00 0.00 26 1011.4
20260507172531 24 152 1.6 6.4 0.00 0.00 0.00 26 1011.5
20260507172025 24 301 3.2 6.4 0.00 0.00 0.00 27 1011.4
20260507171521 24 172 0.0 4.8 0.00 0.00 0.00 27 1011.8
20260507171032 23 22 0.0 8.0 0.00 0.00 0.00 30 1011.8
20260507170527 23 105 0.0 6.4 0.00 0.00 0.00 28 1011.9
20260507170023 23 117 1.6 6.4 0.00 0.00 0.00 26 1012.0
20260507165531 23 115 0.0 3.2 0.00 0.00 0.00 28 1012.0
20260507165028 23 16 0.0 3.2 0.00 0.00 0.00 29 1012.1
20260507164533 22 4 0.0 4.8 0.00 0.00 0.00 29 1012.2
20260507164034 22 359 0.0 8.0 0.00 0.00 0.00 28 1012.2
20260507163525 22 193 1.6 8.0 0.00 0.00 0.00 28 1012.3
20260507163034 22 149 0.0 4.8 0.00 0.00 0.00 30 1012.4
20260507162530 21 294 0.0 6.4 0.00 0.00 0.00 29 1012.4
20260507162026 21 108 0.0 6.4 0.00 0.00 0.00 30 1012.5
20260507161521 21 176 0.0 6.4 0.00 0.00 0.00 31 1012.6
20260507161032 21 67 0.0 4.8 0.00 0.00 0.00 33 1012.6
20260507160528 20 274 1.6 8.0 0.00 0.00 0.00 32 1012.8
20260507160026 20 32 3.2 11.3 0.00 0.00 0.00 33 1012.9
20260507155532 20 6 0.0 11.3 0.00 0.00 0.00 34 1012.9
20260507155028 20 300 1.6 6.4 0.00 0.00 0.00 34 1013.0
20260507154524 19 269 0.0 4.8 0.00 0.00 0.00 35 1013.0
20260507154035 18 39 0.0 9.7 0.00 0.00 0.00 36 1013.0
20260507153531 18 334 3.2 9.7 0.00 0.00 0.00 36 1013.1
20260507153033 18 54 1.6 8.0 0.00 0.00 0.00 38 1013.0
20260507152522 17 11 0.0 8.0 0.00 0.00 0.00 39 1013.1
20260507152032 17 9 1.6 11.3 0.00 0.00 0.00 40 1013.2
20260507151531 17 41 0.0 11.3 0.00 0.00 0.00 41 1013.2
20260507151021 16 15 1.6 9.7 0.00 0.00 0.00 42 1013.2
20260507150533 16 13 1.6 8.0 0.00 0.00 0.00 43 1013.4
20260507150031 16 41 1.6 9.7 0.00 0.00 0.00 44 1013.4
20260507145522 16 309 1.6 9.7 0.00 0.00 0.00 44 1013.4
20260507145032 15 346 0.0 4.8 0.00 0.00 0.00 45 1013.5
20260507144534 15 43 0.0 4.8 0.00 0.00 0.00 45 1013.6
20260507144022 15 37 0.0 4.8 0.00 0.00 0.00 46 1013.6
20260507143530 15 41 0.0 8.0 0.00 0.00 0.00 46 1013.7
20260507143030 15 46 0.0 8.0 0.00 0.00 0.00 46 1013.6
20260507142522 15 82 1.6 11.3 0.00 0.00 0.00 46 1013.7
20260507142033 14 49 1.6 11.3 0.00 0.00 0.00 46 1013.7
20260507141529 14 50 1.6 8.0 0.00 0.00 0.00 46 1013.7
20260507141024 14 351 0.0 9.7 0.00 0.00 0.00 46 1013.7
20260507140533 14 329 3.2 9.7 0.00 0.00 0.00 46 1013.7
20260507140027 13 29 0.0 8.0 0.00 0.00 0.00 47 1013.7
20260507135522 13 309 1.6 11.3 0.00 0.00 0.00 47 1013.7
20260507135031 13 91 1.6 11.3 0.00 0.00 0.00 47 1013.6
20260507134526 13 41 0.0 12.9 0.00 0.00 0.00 47 1013.5
20260507134035 13 51 1.6 12.9 0.00 0.00 0.00 47 1013.5
20260507133531 13 72 3.2 12.9 0.00 0.00 0.00 48 1013.4
20260507133027 13 50 0.0 14.5 0.00 0.00 0.00 49 1013.3
20260507132535 12 61 0.0 14.5 0.00 0.00 0.00 49 1013.3
20260507132032 12 46 1.6 8.0 0.00 0.00 0.00 50 1013.2
20260507131524 12 17 1.6 12.9 0.00 0.00 0.00 52 1013.1
20260507131036 11 63 1.6 12.9 0.00 0.00 0.00 54 1013.1
20260507130533 10 122 0.0 8.0 0.00 0.00 0.00 54 1013.1
20260507130028 10 33 0.0 4.8 0.00 0.00 0.00 52 1013.2
20260507125523 10 68 0.0 3.2 0.00 0.00 0.00 51 1013.2
20260507125031 10 113 0.0 1.6 0.00 0.00 0.00 50 1013.1
20260507124535 10 113 0.0 3.2 0.00 0.00 0.00 50 1013.1
20260507124024 10 114 1.6 4.8 0.00 0.00 0.00 53 1013.1
20260507123532 10 105 0.0 4.8 0.00 0.00 0.00 54 1013.0
20260507123025 10 24 0.0 0.0 0.00 0.00 0.00 52 1012.9
20260507122522 10 25 0.0 1.6 0.00 0.00 0.00 53 1012.9
20260507122032 10 25 0.0 3.2 0.00 0.00 0.00 55 1012.9
20260507121524 9 25 0.0 3.2 0.00 0.00 0.00 55 1012.8
20260507121032 9 42 0.0 1.6 0.00 0.00 0.00 55 1012.7
20260507120526 9 124 0.0 0.0 0.00 0.00 0.00 55 1012.7
20260507120022 8 124 0.0 1.6 0.00 0.00 0.00 55 1012.8
20260507115533 8 124 0.0 1.6 0.00 0.00 0.00 53 1012.7
20260507115028 8 124 0.0 1.6 0.00 0.00 0.00 51 1012.6
20260507114532 9 124 0.0 0.0 0.00 0.00 0.00 50 1012.6
20260507114034 9 124 0.0 0.0 0.00 0.00 0.00 49 1012.6
20260507113529 10 124 0.0 0.0 0.00 0.00 0.00 47 1012.6
20260507113043 10 124 0.0 1.6 0.00 0.00 0.00 46 1012.6
20260507112535 10 124 0.0 1.6 0.00 0.00 0.00 46 1012.6
20260507112023 10 132 0.0 1.6 0.00 0.00 0.00 45 1012.7
20260507111540 10 359 0.0 4.8 0.00 0.00 0.00 44 1012.5
20260507111028 10 27 0.0 4.8 0.00 0.00 0.00 44 1012.6
20260507110525 11 32 0.0 0.0 0.00 0.00 0.00 44 1012.6
20260507110035 11 32 0.0 0.0 0.00 0.00 0.00 42 1012.5
20260507105530 11 32 0.0 0.0 0.00 0.00 0.00 42 1012.5
20260507105025 11 28 0.0 0.0 0.00 0.00 0.00 41 1012.6
20260507104555 12 28 0.0 0.0 0.00 0.00 0.00 40 1012.5
20260507104033 12 29 0.0 1.6 0.00 0.00 0.00 38 1012.4
20260507103541 12 32 0.0 1.6 0.00 0.00 0.00 38 1012.4
20260507103029 12 40 0.0 4.8 0.00 0.00 0.00 36 1012.4
20260507102524 12 39 0.0 1.6 0.00 0.00 0.00 35 1012.4
20260507102035 12 65 0.0 1.6 0.00 0.00 0.00 33 1012.4
20260507101529 12 11 0.0 4.8 0.00 0.00 0.00 32 1012.4
20260507101025 12 4 0.0 4.8 0.00 0.00 0.00 32 1012.3
20260507100521 12 19 0.0 1.6 0.00 0.00 0.00 31 1012.3
20260507100031 12 19 0.0 4.8 0.00 0.00 0.00 31 1012.2
20260507095526 13 37 0.0 4.8 0.00 0.00 0.00 30 1012.1
20260507095021 13 255 0.0 1.6 0.00 0.00 0.00 31 1012.0
20260507094534 13 273 0.0 4.8 0.00 0.00 0.00 29 1012.0
20260507094027 13 18 0.0 6.4 0.00 0.00 0.00 26 1012.0
20260507093539 13 11 0.0 9.7 0.00 0.00 0.00 26 1012.0
20260507093034 13 19 1.6 11.3 0.00 0.00 0.00 27 1012.0
20260507092526 13 68 0.0 12.9 0.00 0.00 0.00 28 1012.0
20260507092037 13 307 4.8 12.9 0.00 0.00 0.00 30 1012.0
20260507091536 12 15 0.0 4.8 0.00 0.00 0.00 33 1012.0
20260507091025 12 48 0.0 1.6 0.00 0.00 0.00 33 1012.0
20260507090537 12 294 0.0 1.6 0.00 0.00 0.00 35 1012.0
20260507090033 12 34 0.0 1.6 0.00 0.00 0.00 32 1011.9
20260507085527 12 34 0.0 3.2 0.00 0.00 0.00 34 1011.9
20260507085022 11 27 0.0 3.2 0.00 0.00 0.00 34 1011.8
20260507084542 11 21 0.0 3.2 0.00 0.00 0.00 33 1011.7
20260507084029 11 339 0.0 0.0 0.00 0.00 0.00 35 1011.8
20260507083542 11 339 0.0 0.0 0.00 0.00 0.00 35 1011.8
20260507083027 11 340 0.0 0.0 0.00 0.00 0.00 35 1011.8
20260507082535 12 340 0.0 1.6 0.00 0.00 0.00 31 1011.8
20260507082030 12 340 0.0 1.6 0.00 0.00 0.00 30 1011.8
20260507081535 12 341 0.0 0.0 0.00 0.00 0.00 30 1011.8
20260507081023 13 340 0.0 0.0 0.00 0.00 0.00 29 1011.8
20260507080532 13 340 0.0 0.0 0.00 0.00 0.00 26 1011.8
20260507080029 13 340 0.0 0.0 0.00 0.00 0.00 26 1011.7
20260507075524 13 340 0.0 0.0 0.00 0.00 0.00 25 1011.7
20260507075037 13 340 0.0 1.6 0.00 0.00 0.00 25 1011.5
20260507074531 13 340 0.0 1.6 0.00 0.00 0.00 25 1011.5
20260507074025 13 21 0.0 1.6 0.00 0.00 0.00 25 1011.6
20260507073536 13 348 0.0 0.0 0.00 0.00 0.00 25 1011.9
20260507073026 14 348 0.0 1.6 0.00 0.00 0.00 24 1011.9
20260507072524 14 348 0.0 1.6 0.00 0.00 0.00 23 1011.8
20260507072038 14 20 0.0 1.6 0.00 0.00 0.00 24 1011.9
20260507071529 15 350 0.0 0.0 0.00 0.00 0.00 22 1011.9
20260507071028 15 350 0.0 0.0 0.00 0.00 0.00 23 1012.0
20260507070535 16 350 0.0 1.6 0.00 0.00 0.00 21 1012.1
20260507070030 16 346 0.0 1.6 0.00 0.00 0.00 20 1012.0
20260507065527 17 40 0.0 1.6 0.00 0.00 0.00 19 1012.0
20260507065036 17 36 0.0 1.6 0.00 0.00 0.00 19 1011.8
20260507064531 17 351 0.0 4.8 0.00 0.00 0.00 19 1011.8
20260507064025 17 343 0.0 4.8 0.00 0.00 0.00 20 1011.8
20260507063535 17 300 0.0 4.8 0.00 0.00 0.00 21 1011.9
20260507063029 16 41 0.0 3.2 0.00 0.00 0.00 21 1011.8
20260507062525 16 328 0.0 1.6 0.00 0.00 0.00 21 1011.8
20260507062023 17 329 0.0 3.2 0.00 0.00 0.00 21 1012.0
20260507061538 17 328 0.0 3.2 0.00 0.00 0.00 21 1012.0
20260507061030 17 42 0.0 12.9 0.00 0.00 0.00 22 1012.0
20260507060523 15 104 3.2 12.9 0.00 0.00 0.00 25 1012.0
20260507060035 13 248 0.0 1.6 0.00 0.00 0.00 27 1012.0
20260507055530 13 193 0.0 1.6 0.00 0.00 0.00 29 1011.9
20260507055042 13 188 0.0 1.6 0.00 0.00 0.00 28 1011.8
20260507054531 13 190 0.0 1.6 0.00 0.00 0.00 27 1011.8
20260507054025 13 239 0.0 1.6 0.00 0.00 0.00 28 1011.7
20260507053535 13 239 0.0 1.6 0.00 0.00 0.00 27 1011.5
20260507053031 14 240 0.0 1.6 0.00 0.00 0.00 25 1011.5
20260507052525 14 239 0.0 1.6 0.00 0.00 0.00 24 1011.4
20260507052036 15 240 0.0 0.0 0.00 0.00 0.00 22 1011.5
20260507051532 15 240 0.0 1.6 0.00 0.00 0.00 21 1011.5
20260507051030 16 149 0.0 0.0 0.00 0.00 0.00 19 1011.5
20260507050523 17 149 0.0 0.0 0.00 0.00 0.00 19 1011.6
20260507050032 17 149 0.0 1.6 0.00 0.00 0.00 17 1011.6
20260507045530 17 123 0.0 1.6 0.00 0.00 0.00 17 1011.6
20260507045039 18 113 0.0 3.2 0.00 0.00 0.00 16 1011.4
20260507044530 18 308 0.0 4.8 0.00 0.00 0.00 16 1011.3
20260507044027 18 82 0.0 4.8 0.00 0.00 0.00 16 1011.2
20260507043527 17 77 0.0 6.4 0.00 0.00 0.00 17 1011.1
20260507043048 17 70 0.0 6.4 0.00 0.00 0.00 18 1011.0
20260507042532 17 11 0.0 4.8 0.00 0.00 0.00 18 1010.8
20260507042026 17 240 0.0 4.8 0.00 0.00 0.00 18 1010.9
20260507041521 17 342 0.0 3.2 0.00 0.00 0.00 18 1010.8
20260507041032 17 76 0.0 6.4 0.00 0.00 0.00 18 1010.9
20260507040528 17 118 0.0 6.4 0.00 0.00 0.00 18 1010.8
20260507040021 17 255 0.0 6.4 0.00 0.00 0.00 19 1010.8
20260507035533 17 143 0.0 3.2 0.00 0.00 0.00 18 1010.7
20260507035027 17 275 0.0 1.6 0.00 0.00 0.00 17 1010.7
20260507034528 17 129 0.0 1.6 0.00 0.00 0.00 16 1010.6
20260507034034 17 117 0.0 1.6 0.00 0.00 0.00 16 1010.6
20260507033529 18 133 0.0 0.0 0.00 0.00 0.00 17 1010.5
20260507033030 18 133 0.0 1.6 0.00 0.00 0.00 15 1010.4
20260507032536 18 132 0.0 1.6 0.00 0.00 0.00 15 1010.3
20260507032031 18 226 0.0 3.2 0.00 0.00 0.00 15 1010.3
20260507031527 18 166 0.0 3.2 0.00 0.00 0.00 15 1010.2
20260507031023 19 77 0.0 1.6 0.00 0.00 0.00 15 1010.2
20260507030538 19 59 0.0 1.6 0.00 0.00 0.00 15 1010.1
20260507030026 20 60 0.0 3.2 0.00 0.00 0.00 15 1010.0
20260507025523 20 54 0.0 4.8 0.00 0.00 0.00 14 1009.9
20260507025037 20 333 0.0 4.8 0.00 0.00 0.00 15 1009.8
20260507024524 20 231 0.0 3.2 0.00 0.00 0.00 14 1009.6
20260507024036 20 269 0.0 6.4 0.00 0.00 0.00 14 1009.4
20260507023532 20 255 0.0 6.4 0.00 0.00 0.00 13 1009.3
20260507023026 20 250 0.0 6.4 0.00 0.00 0.00 14 1009.3
20260507022521 20 242 1.6 6.4 0.00 0.00 0.00 13 1009.2
20260507022035 20 250 1.6 6.4 0.00 0.00 0.00 13 1009.3
20260507021527 20 277 0.0 6.4 0.00 0.00 0.00 13 1009.2
20260507021025 21 236 0.0 6.4 0.00 0.00 0.00 14 1009.1
20260507020534 21 214 0.0 4.8 0.00 0.00 0.00 13 1009.1
20260507020045 21 252 0.0 3.2 0.00 0.00 0.00 13 1009.1
20260507015525 21 200 0.0 4.8 0.00 0.00 0.00 13 1009.1
20260507015036 21 203 0.0 6.4 0.00 0.00 0.00 13 1009.1
20260507014527 21 295 0.0 6.4 0.00 0.00 0.00 13 1009.1
20260507014037 21 212 0.0 6.4 0.00 0.00 0.00 13 1009.0
20260507013530 22 351 0.0 9.7 0.00 0.00 0.00 13 1008.9
20260507013027 22 224 1.6 11.3 0.00 0.00 0.00 12 1008.9
20260507012521 22 249 1.6 11.3 0.00 0.00 0.00 12 1008.9
20260507012031 22 259 0.0 9.7 0.00 0.00 0.00 12 1008.8
20260507011539 22 256 0.0 9.7 0.00 0.00 0.00 12 1008.8
20260507011022 22 226 0.0 8.0 0.00 0.00 0.00 12 1008.8
20260507010534 22 109 0.0 12.9 0.00 0.00 0.00 12 1008.7
20260507010033 22 281 1.6 12.9 0.00 0.00 0.00 12 1008.6
20260507005524 23 222 0.0 8.0 0.00 0.00 0.00 13 1008.6
20260507005032 23 181 1.6 9.7 0.00 0.00 0.00 12 1008.5
20260507004526 23 255 1.6 9.7 0.00 0.00 0.00 12 1008.5
20260507004021 23 249 3.2 9.7 0.00 0.00 0.00 11 1008.4
20260507003533 23 267 1.6 9.7 0.00 0.00 0.00 12 1008.4
20260507003027 23 285 1.6 8.0 0.00 0.00 0.00 12 1008.3
20260507002523 24 260 0.0 6.4 0.00 0.00 0.00 13 1008.3
20260507002034 24 186 1.6 8.0 0.00 0.00 0.00 12 1008.3
20260507001602 24 102 1.6 8.0 0.00 0.00 0.00 12 1008.3
20260507001028 25 246 3.2 8.0 0.00 0.00 0.00 11 1008.3
20260507000521 25 298 1.6 12.9 0.00 0.00 0.00 12 1008.3
20260507000040 25 211 3.2 12.9 0.00 0.00 0.00 12 1008.3
20260506235526 25 233 1.6 9.7 0.00 0.00 0.00 12 1008.2
20260506235031 25 233 1.6 12.9 0.00 0.00 0.00 12 1008.1
20260506234529 25 260 3.2 12.9 0.00 0.00 0.00 12 1008.2
20260506234023 25 158 3.2 9.7 0.00 0.00 0.00 12 1008.1
20260506233535 25 214 1.6 8.0 0.00 0.00 0.00 12 1008.2
20260506233030 25 233 1.6 14.5 0.00 0.00 0.00 12 1008.1
20260506232525 25 252 0.0 11.3 0.00 0.00 0.00 11 1008.2
20260506232035 25 350 3.2 11.3 0.00 0.00 0.00 11 1008.2
20260506231531 25 219 4.8 17.7 0.00 0.00 0.00 12 1008.2
20260506231026 25 24 3.2 17.7 0.00 0.00 0.00 12 1008.3
20260506230526 25 209 3.2 9.7 0.00 0.00 0.00 12 1008.2
20260506230050 25 68 4.8 9.7 0.00 0.00 0.00 11 1008.3
20260506225528 26 282 1.6 12.9 0.00 0.00 0.00 12 1008.3
20260506225023 26 257 1.6 12.9 0.00 0.00 0.00 12 1008.4
20260506224532 25 207 0.0 11.3 0.00 0.00 0.00 13 1008.3
20260506224027 25 173 3.2 11.3 0.00 0.00 0.00 12 1008.4